Weather reports worldwide

Advertisment
Redesdale Camp, United Kingdom (3230): temperature & dewpoint: 09.07.2018 20:00:00 - 15.07.2018 20:00:00 (BST)Redesdale Camp, United Kingdom (3230): temperature -20cm & temperature -100cm: 09.07.2018 20:00:00 - 15.07.2018 20:00:00 (BST)Redesdale Camp, United Kingdom (3230): wind speed: 09.07.2018 20:00:00 - 15.07.2018 20:00:00 (BST)Redesdale Camp, United Kingdom (3230): wind direction: 09.07.2018 20:00:00 - 15.07.2018 20:00:00 (BST)Redesdale Camp, United Kingdom (3230): reduced air pressure: 09.07.2018 20:00:00 - 15.07.2018 20:00:00 (BST)Redesdale Camp, United Kingdom (3230): visibility: 09.07.2018 20:00:00 - 15.07.2018 20:00:00 (BST)Redesdale Camp, United Kingdom (3230): precipitation: 09.07.2018 20:00:00 - 15.07.2018 20:00:00 (BST)
Date & Time tt [°C] td [°C] tt -20cm [°C] tt -100cm [°C] ff [km/h] ff [kn] dd ppp [hPa] vv [km] rr [mm]
15.07.2018 20:00:00 - - - - - - - - - 0,0
15.07.2018 19:00:00 20,8 13,4 - - 15 8 SW 1012,8 - 0,0
15.07.2018 18:00:00 21,7 13,2 - - 15 8 SW 1012,9 - 0,0
15.07.2018 17:00:00 22,1 13,1 - - 16 9 SW 1012,9 - 0,0
15.07.2018 16:00:00 24,0 13,9 - - 16 9 SW 1012,8 - 0,0
15.07.2018 15:00:00 24,4 12,2 - - 15 8 SW 1012,7 - 0,0
15.07.2018 14:00:00 23,9 12,8 - - 15 8 SW 1012,8 - 0,0
15.07.2018 13:00:00 23,5 11,9 - - 13 7 SW 1013,2 - 0,0
15.07.2018 12:00:00 23,1 12,7 - - 11 6 SW 1013,3 - 0,0
15.07.2018 11:00:00 20,9 12,9 - - 11 6 WSW 1013,9 - 0,0
15.07.2018 10:00:00 21,0 13,5 17,5 15,5 11 6 SW 1014,1 - 0,0
15.07.2018 09:00:00 18,8 12,7 - - 13 7 SW 1014,5 - 0,0
15.07.2018 08:00:00 16,6 13,3 - - 4 2 SSE 1014,9 - 0,0
15.07.2018 07:00:00 13,6 12,7 - - 2 1 ESE 1015,2 - 0,0
15.07.2018 06:00:00 9,4 9,4 - - 4 2 NE 1015,6 - 0,0
15.07.2018 05:00:00 8,1 7,8 - - 5 3 N 1015,9 - 0,0
15.07.2018 04:00:00 8,8 8,3 - - 5 3 S 1016,3 - 0,0
15.07.2018 03:00:00 9,1 8,4 - - 2 1 E 1016,2 - 0,0
15.07.2018 02:00:00 11,4 10,1 - - 4 2 W 1016,4 - 0,0
15.07.2018 01:00:00 11,4 10,6 - - 4 2 WNW 1016,7 - 0,0
15.07.2018 00:00:00 11,2 9,3 - - 2 1 WSW 1017,1 - 0,0
14.07.2018 23:00:00 12,9 9,5 - - 2 1 SSW 1016,9 - 0,0
14.07.2018 22:00:00 15,9 10,3 - - 8 4 W 1016,7 - 0,0
14.07.2018 21:00:00 18,1 10,7 - - 8 4 WSW 1016,5 - 0,0
14.07.2018 20:00:00 19,8 10,7 - - 11 6 SW 1016,4 - 0,0
14.07.2018 19:00:00 20,7 11,3 - - 15 8 SW 1016,3 - 0,0
14.07.2018 18:00:00 22,2 12,1 - - 11 6 WSW 1016,4 - 0,0
14.07.2018 17:00:00 22,1 12,2 - - 18 10 SW 1016,4 - 0,0
14.07.2018 16:00:00 22,8 11,9 - - 21 11 SW 1016,5 - 0,0
14.07.2018 15:00:00 23,2 12,0 - - 16 9 SW 1016,9 - 0,0
14.07.2018 14:00:00 21,7 11,6 - - 15 8 WSW 1017,5 - 0,0
14.07.2018 13:00:00 22,1 12,0 - - 16 9 SW 1017,4 - 0,0
14.07.2018 12:00:00 19,7 11,5 - - 13 7 WSW 1018,2 - 0,0
14.07.2018 11:00:00 19,4 11,4 - - 16 9 SW 1018,5 - 0,0
14.07.2018 10:00:00 18,4 11,3 17,4 15,5 13 7 W 1018,7 - 0,0
14.07.2018 09:00:00 16,6 11,6 - - 11 6 WSW 1019,2 - 0,0
14.07.2018 08:00:00 14,2 11,1 - - 11 6 WSW 1019,5 - 0,0
14.07.2018 07:00:00 14,1 11,6 - - 8 4 W 1019,6 - 0,0
14.07.2018 06:00:00 13,1 12,1 - - 4 2 ENE 1019,6 - 0,0
14.07.2018 05:00:00 11,0 10,5 - - 5 3 N 1020,0 - 0,0
14.07.2018 04:00:00 10,1 9,4 - - 2 1 NE 1020,4 24 0,0
14.07.2018 03:00:00 12,0 11,0 - - 5 3 N 1020,4 22 0,0
14.07.2018 02:00:00 11,3 10,7 - - 2 1 NNE 1020,6 6 0,0
14.07.2018 01:00:00 11,7 11,2 - - 2 1 WNW 1021,0 10 0,0
14.07.2018 00:00:00 11,8 11,1 - - 2 1 N 1021,1 6 0,0
13.07.2018 23:00:00 13,4 12,6 - - 4 2 N 1021,1 15 0,0
13.07.2018 22:00:00 14,9 13,1 - - 2 1 W 1020,9 22 0,0
13.07.2018 21:00:00 17,0 13,8 - - 5 3 SW 1020,3 30 0,0
13.07.2018 20:00:00 18,7 13,7 - - 8 4 WSW 1019,9 30 0,0
13.07.2018 19:00:00 19,7 14,4 - - 9 5 SW 1020,2 30 0,0
13.07.2018 18:00:00 18,9 14,7 - - 8 4 SW 1020,5 30 0,0
13.07.2018 17:00:00 19,0 15,1 - - 9 5 S 1020,7 20 0,0
13.07.2018 16:00:00 17,9 15,3 - - 4 2 WSW 1021,3 13 0,0
13.07.2018 15:00:00 16,8 14,7 - - 11 6 S 1021,6 7 0,4
13.07.2018 14:00:00 19,9 13,7 - - 11 6 SE 1021,5 35 0,0
13.07.2018 13:00:00 19,5 13,0 - - 13 7 SSE 1021,8 45 0,0
13.07.2018 12:00:00 19,3 13,2 - - 11 6 ESE 1022,0 40 0,0
13.07.2018 11:00:00 18,7 13,2 - - - - - 1022,2 45 0,0
13.07.2018 10:00:00 16,5 13,1 17,2 15,5 8 4 SE 1022,6 50 0,0
13.07.2018 09:00:00 14,8 12,6 - - 5 3 SSE 1022,9 35 0,0
13.07.2018 08:00:00 13,4 12,2 - - 5 3 N 1023,0 26 0,0
13.07.2018 07:00:00 12,6 12,0 - - 4 2 N 1023,1 23 0,0
13.07.2018 06:00:00 12,4 11,9 - - 0 0 N 1023,2 13 0,0
13.07.2018 05:00:00 12,1 11,6 - - 2 1 NE 1023,4 21 0,0
13.07.2018 04:00:00 12,3 11,6 - - 2 1 WNW 1023,4 22 0,0
13.07.2018 03:00:00 12,3 11,6 - - 5 3 N 1023,6 25 0,0
13.07.2018 02:00:00 12,6 11,4 - - 2 1 NW 1023,7 22 0,0
13.07.2018 01:00:00 12,9 11,1 - - 0 0 N 1024,0 30 0,0
13.07.2018 00:00:00 13,1 11,2 - - 4 2 ESE 1024,2 45 0,0
12.07.2018 23:00:00 13,3 11,0 - - 5 3 E 1024,1 29 0,0
12.07.2018 22:00:00 13,8 11,1 - - 9 5 E 1023,7 50 0,0
12.07.2018 21:00:00 14,7 11,3 - - 15 8 E 1023,2 50 0,0
12.07.2018 20:00:00 15,8 11,6 - - 16 9 ENE 1022,9 50 0,0
12.07.2018 19:00:00 17,6 12,0 - - 15 8 ENE 1022,5 50 0,0
12.07.2018 18:00:00 18,2 12,5 - - 15 8 ENE 1022,3 50 0,0
12.07.2018 17:00:00 19,0 11,6 - - 15 8 ENE 1022,4 50 0,0
12.07.2018 16:00:00 18,7 12,1 - - 9 5 E 1022,8 50 0,0
12.07.2018 15:00:00 18,5 11,8 - - 13 7 E 1022,9 50 0,0
12.07.2018 14:00:00 18,2 11,2 - - 9 5 SE 1023,1 30 0,0
12.07.2018 13:00:00 16,6 11,6 - - 9 5 E 1023,4 50 0,0
12.07.2018 12:00:00 16,2 12,1 - - 13 7 E 1023,4 50 0,0
12.07.2018 11:00:00 16,1 12,3 - - 11 6 E 1023,4 50 0,0
12.07.2018 10:00:00 15,7 11,3 17,2 15,5 8 4 E 1023,3 35 0,0
12.07.2018 09:00:00 14,7 11,0 - - 4 2 SE 1023,4 27 0,0
12.07.2018 08:00:00 13,6 11,0 - - 4 2 NE 1023,6 30 0,0
12.07.2018 07:00:00 12,7 11,1 - - 2 1 WNW 1023,5 40 0,0
12.07.2018 06:00:00 11,8 10,7 - - 2 1 WNW 1023,5 40 0,0
12.07.2018 05:00:00 11,6 10,5 - - 4 2 N 1023,5 5 0,0
12.07.2018 04:00:00 11,4 10,2 - - 2 1 N 1023,6 35 0,0
12.07.2018 03:00:00 11,4 10,1 - - 4 2 N 1023,8 30 0,0
12.07.2018 02:00:00 10,9 9,8 - - 2 1 NW 1024,0 25 0,0
12.07.2018 01:00:00 10,4 9,5 - - 0 0 N 1024,2 17 0,0
12.07.2018 00:00:00 9,9 9,2 - - 8 4 N 1024,2 10 0,0
11.07.2018 23:00:00 10,3 8,9 - - 8 4 N 1024,1 11 0,0
11.07.2018 22:00:00 12,5 9,9 - - 5 3 S 1023,7 40 0,0
11.07.2018 21:00:00 14,7 10,4 - - 16 9 ENE 1022,8 50 0,0
11.07.2018 20:00:00 17,0 11,4 - - 15 8 ENE 1022,6 50 0,0
11.07.2018 19:00:00 18,6 12,4 - - 13 7 ENE 1022,2 50 0,0
11.07.2018 18:00:00 18,5 12,6 - - 15 8 E 1022,1 50 0,0
11.07.2018 17:00:00 - - - - 11 6 E - 30 0,0
11.07.2018 16:00:00 - - - - 8 4 SE - 30 0,0
11.07.2018 15:00:00 - - - - 9 5 ESE - - 0,0
11.07.2018 14:00:00 - - - - - - - - 28 0,0
11.07.2018 13:00:00 18,1 11,2 - - 9 5 E 1023,3 22 0,0
11.07.2018 12:00:00 16,2 10,2 - - 8 4 ESE 1023,8 27 0,0
11.07.2018 11:00:00 15,4 9,8 - - 5 3 ENE 1024,1 28 0,0
11.07.2018 10:00:00 13,8 9,3 17,0 15,4 5 3 N 1024,5 27 0,0
11.07.2018 09:00:00 13,2 9,4 - - 8 4 NE 1024,6 26 0,0
11.07.2018 08:00:00 12,0 9,7 - - 5 3 NNE 1024,9 29 0,0
11.07.2018 07:00:00 9,9 9,4 - - 4 2 WNW 1024,8 2,9 0,0
11.07.2018 06:00:00 8,8 8,5 - - 2 1 WNW 1024,9 18 0,0
11.07.2018 05:00:00 7,6 7,3 - - 0 0 N 1025,0 14 0,0
11.07.2018 04:00:00 7,1 6,7 - - 4 2 W 1025,3 13 0,0
11.07.2018 03:00:00 5,9 5,3 - - 4 2 WNW 1025,7 5 0,0
11.07.2018 02:00:00 7,0 6,4 - - 4 2 WNW 1025,8 10 0,0
11.07.2018 01:00:00 8,0 7,3 - - 2 1 NW 1025,9 13 0,0
11.07.2018 00:00:00 8,5 7,4 - - 2 1 NNW 1026,2 15 0,0
10.07.2018 23:00:00 10,4 8,7 - - 4 2 SSE 1026,2 16 0,0
10.07.2018 22:00:00 12,9 9,8 - - 9 5 ENE 1025,8 23 0,0
10.07.2018 21:00:00 14,3 9,5 - - 5 3 N 1025,4 29 0,0
10.07.2018 20:00:00 15,8 9,7 - - 15 8 NNE 1025,3 25 0,0
10.07.2018 19:00:00 16,1 9,6 - - 11 6 NNE 1025,4 30 0,0
10.07.2018 18:00:00 16,5 9,2 - - 11 6 NNE 1025,2 30 0,0
10.07.2018 17:00:00 16,6 10,3 - - 9 5 N 1025,6 29 0,0
10.07.2018 16:00:00 17,5 11,4 - - 16 9 NNE 1025,7 29 0,0
10.07.2018 15:00:00 16,7 10,9 - - 13 7 N 1026,1 40 0,0
10.07.2018 14:00:00 16,7 11,2 - - 11 6 N 1026,2 35 0,0
10.07.2018 13:00:00 15,4 10,6 - - 11 6 NNE 1026,7 35 0,0
10.07.2018 12:00:00 14,4 10,2 - - 9 5 NNE 1026,9 35 0,0
10.07.2018 11:00:00 13,8 9,9 - - 15 8 NE 1027,0 30 0,0
10.07.2018 10:00:00 13,5 10,2 17,5 15,4 11 6 NE 1027,1 30 0,0
10.07.2018 09:00:00 13,0 10,0 - - 11 6 NNE 1027,4 30 0,0
10.07.2018 08:00:00 12,5 9,5 - - 8 4 N 1027,4 30 0,0
10.07.2018 07:00:00 11,8 9,6 - - 5 3 NNW 1027,6 23 0,0
10.07.2018 06:00:00 11,0 9,6 - - 4 2 WSW 1027,8 28 0,0
10.07.2018 05:00:00 10,8 9,5 - - 2 1 NNW 1027,8 28 0,0
10.07.2018 04:00:00 10,9 9,4 - - 2 1 NW 1028,0 30 0,0
10.07.2018 03:00:00 11,1 9,5 - - 2 1 N 1028,1 30 0,0
10.07.2018 02:00:00 11,2 9,6 - - 4 2 N 1028,5 28 0,0
10.07.2018 01:00:00 11,1 9,6 - - 5 3 N 1028,7 30 0,0
10.07.2018 00:00:00 10,7 9,4 - - 5 3 NNW 1029,0 30 0,0
09.07.2018 23:00:00 10,8 9,0 - - 5 3 N 1028,8 30 0,0
09.07.2018 22:00:00 12,3 9,9 - - 9 5 E 1028,6 22 0,0
09.07.2018 21:00:00 13,5 10,3 - - 13 7 E 1028,1 27 0,0
09.07.2018 20:00:00 14,4 11,2 - - 13 7 E 1027,9 30 0,0

tt = temperature
td = dewpoint
tt -20cm = temperature -20cm
tt -100cm = temperature -100cm
ff = wind speed
dd = wind direction
ppp = reduced air pressure
vv = visibility
rr = precipitation

Next stations